Tracking 19242 objects as of 20-Sep-2018
HD Live streaming from Space Station
objects crossing your sky now

FENGYUN 1C DEB

Track FENGYUN 1C DEB now!
10-day predictions


NORAD ID: 31180
Int'l Code: 1999-025BJJ
Perigee: 640.5 km
Apogee: 1,396.4 km
Inclination: 99.2 °
Period: 105.4 minutes
Semi major axis: 7389 km
RCS: 0.0005 m2 (small)
Launch date: May 10, 1999
Source: People's Republic of China (PRC)
Launch site: Taiyaun Space Center, China (TSC)

Note: This is SATELLITE DEBRIS
aabbcc
Your satellite tracking list
Your tracking list is empty




NASA's NSSDC Master Catalog

Two Line Element Set (TLE):
1 31180U 99025BJJ 18261.48388981  .00000046  00000-0  43209-4 0  9997
2 31180  99.1681 133.3926 0511462 144.8200 338.2225 13.66728948573064
Source of the keplerian elements: AFSPC